(20) Massalia
ephemeris date magn radius delta ra dec elong phase
Today19 Apr 202511.32.113 AU2.965 AU03h31m+18°44'26.4°12.2°
Opposition21 Mar 20269.02.287 AU1.291 AU12h01m-00°47'179.4°0.3°
(20) Massalia - 2025-04-19
astro.vanbuitenen.nl


 
-1 year
-1 month
-1 day
Now
+1 day
+1 month
+1 year

The interactive orbit chart above shows the body's path through the solar system and its position at the given date. Green and blue lines are shown perpendicular to the ecliptic plane: Green if the path is above the ecliptic plane, blue if it is below. (Left-click and drag to rotate the view; Right-click and drag to move the view; Use scroll wheel to zoom in our out.)

The orbital elements of Massalia are:

            e (Eccentricity)                : 0.1438882
            a (Semimajor axis)              : 2.4087525
            i (Inclination)                 : 0.70931
            Ω (Longitude of ascending node) : 205.97786
            ω (Argument of perihelion)      : 257.33745
            M (Mean anomaly)                : 337.16976
            Epoch                           : 2025 May 05

            L (Longitude of perihelion)     : 283.31437
            B (Latitude of perihelion)      : -0.69206
            P (Orbital period in years)     : 3.74            
        

The light curve chart below shows the estimated development of the minor planet's magnitude.


The all-sky chart below shows the path of the minor planet over the same period as the light curve. The current position is marked yellow.





The following chart shows the path of the minor planet in the next few days. The field of view is optimized for (~10x50) binoculars and finderscopes. A more printer-friendly version of the same chart can be found below.




Ephemerides:
Date       Time       RA (2000)    DEC (2000)    delta   radius  elong  phase   PA    magn
2025-04-19 00:00 UT   03 31 44.8   +18 44 19     2.965    2.113   26.4   12.2    77   11.3 
2025-04-19 21:48 UT   03 33 42.7   +18 51 05     2.969    2.112   25.9   12.0    77   11.3 
2025-04-20 00:00 UT   03 33 54.6   +18 51 45     2.969    2.112   25.9   12.0    77   11.3 
2025-04-21 00:00 UT   03 36 04.8   +18 59 06     2.973    2.111   25.5   11.8    77   11.2 
2025-04-22 00:00 UT   03 38 15.4   +19 06 22     2.978    2.110   25.0   11.6    77   11.2 
2025-04-23 00:00 UT   03 40 26.3   +19 13 33     2.982    2.109   24.6   11.4    78   11.2 
2025-04-24 00:00 UT   03 42 37.6   +19 20 38     2.986    2.108   24.1   11.2    78   11.2 
2025-04-25 00:00 UT   03 44 49.2   +19 27 38     2.989    2.107   23.7   11.1    78   11.2 
2025-04-26 00:00 UT   03 47 01.2   +19 34 33     2.993    2.106   23.2   10.9    78   11.2 
2025-04-27 00:00 UT   03 49 13.6   +19 41 22     2.997    2.105   22.8   10.7    78   11.2 
2025-04-28 00:00 UT   03 51 26.3   +19 48 05     3.001    2.105   22.4   10.5    79   11.2 
2025-04-29 00:00 UT   03 53 39.3   +19 54 42     3.004    2.104   21.9   10.3    79   11.2 
2025-04-30 00:00 UT   03 55 52.7   +20 01 14     3.008    2.103   21.5   10.1    79   11.2 
2025-05-01 00:00 UT   03 58 06.4   +20 07 39     3.011    2.102   21.0    9.9    79   11.2 
2025-05-02 00:00 UT   04 00 20.4   +20 13 59     3.014    2.101   20.6    9.7    79   11.2 
2025-05-03 00:00 UT   04 02 34.8   +20 20 13     3.018    2.100   20.2    9.5    80   11.2 
2025-05-04 00:00 UT   04 04 49.5   +20 26 20     3.021    2.099   19.7    9.3    80   11.2 


    Terminology:
            
    delta:  distance between minor planet and earth in AU
    radius: distance between minor planet and sun in AU
    magn:   magnitude (brightness) estimate    
    ra:     right ascension in hours (24h = 360deg)
    dec:    declination in degrees
    elong:  elongation in degrees (angle sun-earth-minor planet)    
    phase:  phase angle in degrees (angle sun-minor planet-earth)        
    AU:     Astronomical Unit (mean distance between earth and sun: 149597870.7 km
    

Orbital elements provided by the MPC (Minor Planet Center).
Calculations by a modified version of AAPlus, a C# implementation of the AA+ project by PJ Naughter from the algorithms presented in the book "Astronomical Algorithms" by Jean Meeus.
NGC2000 dso catalog and star labels from VizieR as provided by the Strasbourg astronomical Data Center.
Tycho2 catalog from the ESO archive.